Location: Navalespino
(40.5894°N, 4.2660°W)
Time: 01:28:46
(UTC+00:00)

Cosmos 1763 Rocket - Pass Details

Date: 18 April 2024
Orbit: 730 x 778 km, 74.0° (Epoch: 28 May)

Event Time Altitude Azimuth Distance (km) Brightness Sun altitude
Exits shadow 20:58:27 45° 103° (ESE) 1,000 3.7 -20.9°
Maximum altitude 20:58:27 45° 103° (ESE) 1,000 3.7 -20.9°
Drops below altitude 10° 21:03:18 10° 32° (NNE) 2,261 6.0 -21.7°
Sets 21:05:45 0° 26° (NNE) 3,197 6.9 -22.0°
